Theta_e
282 281 281 281 280 280 280 279 279 279 279 278 279 278 279 278 279 278 278 278 278 278 278 278 278 278 278 278 277 277 277 277 277 276 276 276 276 276 276 275 275 275
281 281 282 280 280 281 279 279 279 279 278 278 278 278 279 278 278 278 278 278 278 277 277 277 277 277 277 277 276 277 276 277 277 278 276 275 275 275 275 275 274 275
281 280 280 280 280 279 279 278 278 278 278 278 278 279 279 278 278 277 277 277 277 277 277 277 277 276 276 276 276 276 276 276 275 275 276 275 275 275 274 274 274 274
280 281 280 280 279 279 278 278 278 278 278 278 278 279 279 279 278 277 277 277 276 276 276 276 276 276 276 276 276 275 275 275 275 276 276 276 275 275 274 274 274 274
281 280 279 279 278 278 278 278 278 278 278 278 278 278 278 278 277 277 276 276 276 276 276 276 276 276 276 275 275 275 276 276 276 276 275 274 275 275 274 274 273 273
281 280 280 279 279 278 278 278 278 279 278 278 278 278 277 277 276 277 277 277 277 277 277 277 276 276 276 275 275 276 276 275 275 274 274 273 274 274 274 274 273 273
281 280 279 279 278 278 278 278 278 279 278 278 278 277 277 277 278 278 277 276 277 277 277 276 275 275 276 275 275 275 274 274 273 274 273 273 273 273 273 273 272 272
280 280 279 279 278 278 278 278 278 278 278 278 278 277 277 277 278 278 277 277 277 276 276 276 277 276 275 275 275 274 274 274 273 273 273 272 273 272 272 273 272 272
280 279 279 278 278 278 278 278 278 278 278 278 278 277 277 278 278 277 277 276 276 276 276 276 276 275 275 275 275 274 273 273 273 273 272 272 272 272 272 272 271 271
280 279 279 278 278 278 278 278 278 278 278 278 277 277 277 278 278 277 276 275 276 275 275 275 275 274 274 274 274 273 272 272 272 272 272 272 272 271 271 271 271 270
279 279 278 278 278 278 278 278 278 277 277 277 277 277 277 277 278 277 275 275 275 275 275 274 274 274 274 273 272 271 271 271 271 271 271 271 271 271 273 270 270 270
279 279 278 278 278 278 278 278 277 277 277 277 277 278 277 277 277 276 276 275 275 275 275 274 274 274 273 273 272 271 271 271 271 271 271 270 270 270 270 270 270 269
279 279 279 278 278 278 277 277 277 277 277 277 277 277 277 276 276 276 276 275 275 275 274 273 273 273 272 272 272 271 271 271 271 270 270 270 269 270 270 270 269 269
280 279 279 279 278 277 277 277 277 277 277 276 277 277 277 276 276 276 275 275 274 274 274 273 272 272 272 272 272 272 272 272 271 270 270 270 270 269 269 269 269 269
280 279 278 278 277 277 277 277 277 277 277 276 277 277 277 276 276 275 274 274 274 274 273 273 272 272 273 273 272 272 273 273 272 271 270 270 269 269 269 269 268 268
279 279 278 277 277 277 278 277 277 276 276 276 276 276 275 275 275 275 274 274 273 273 272 272 272 272 274 277 276 273 273 273 273 271 270 270 270 269 268 268 268 268
279 278 278 278 278 278 277 277 277 276 276 276 275 275 274 274 274 274 274 274 273 272 272 272 272 272 277 279 278 278 274 273 272 271 271 269 269 269 269 269 268 268
279 279 278 278 277 277 277 276 276 275 275 275 274 274 274 274 274 274 274 273 273 272 272 272 271 274 278 280 280 279 276 273 272 271 271 270 269 269 269 269 268 268
279 278 278 277 277 277 276 275 275 275 274 274 274 274 273 273 273 273 273 273 272 272 271 272 271 276 279 281 281 280 278 275 272 272 271 271 270 269 269 269 268 268
279 278 278 277 276 276 275 274 274 274 274 273 273 272 272 272 272 272 273 272 272 272 272 271 271 275 280 281 282 281 280 276 272 272 272 271 271 270 269 269 268 267
279 278 277 277 276 275 274 274 274 273 273 272 272 272 272 272 272 272 272 272 271 271 271 271 271 276 280 282 282 283 282 279 273 273 271 271 271 270 270 269 268 268
278 278 277 276 275 274 273 273 272 272 272 271 271 270 269 269 270 271 272 272 272 271 271 270 271 277 280 282 283 283 283 279 274 273 271 271 271 270 270 269 268 268
278 278 277 275 274 273 272 272 272 270 270 270 270 271 271 270 270 271 272 271 271 271 270 270 270 275 280 281 283 283 281 277 274 273 272 270 270 269 269 268 268 268
278 277 276 275 273 273 272 273 272 270 270 270 271 270 270 270 271 271 271 271 271 271 271 270 270 273 279 281 282 283 281 276 274 272 271 270 269 269 268 267 268 270
277 276 276 274 273 273 273 272 272 272 272 271 270 271 272 272 271 271 271 271 271 271 272 271 270 272 277 281 282 283 281 276 274 271 270 269 267 266 267 267 267 270
276 275 275 274 274 273 273 273 272 271 271 271 270 271 271 271 270 271 271 270 270 270 270 271 270 270 272 280 282 282 283 276 273 270 269 268 267 266 265 265 266 266
Wind_Speed
8 6 8 8 7 7 8 8 7 7 6 6 7 6 6 5 4 6 6 6 6 6 5 5 4 5 5 6 6 6 6 6 6 5 6 7 6 6 7 5 5 5
6 6 5 6 6 5 5 5 7 7 7 6 5 6 4 5 4 5 6 6 6 6 6 6 5 5 6 6 5 7 6 6 6 2 6 7 6 7 7 5 5 4
6 6 7 8 9 8 7 5 5 5 6 5 5 5 6 4 5 3 4 4 6 6 5 6 6 5 6 5 4 6 6 6 6 4 6 6 5 7 5 5 5 5
6 7 7 6 6 8 7 7 5 5 5 6 5 5 5 4 5 5 4 4 5 5 5 5 7 6 6 6 6 6 5 5 4 5 6 5 5 6 5 5 5 5
8 7 5 5 5 5 6 7 8 7 6 6 5 5 6 5 5 5 5 5 5 5 5 6 6 6 6 5 5 6 5 5 4 5 6 6 4 5 3 5 5 5
7 7 7 8 7 8 8 7 7 7 7 7 6 5 5 5 5 5 5 6 5 5 6 6 7 6 6 5 5 5 5 6 4 5 6 6 4 3 3 4 5 5
9 8 8 7 8 7 7 7 6 6 6 6 6 5 6 6 6 6 5 5 5 6 6 6 6 6 5 6 5 6 5 5 5 6 7 4 4 3 3 3 4 5
9 7 8 8 9 8 8 7 7 7 7 6 7 6 6 6 6 5 5 6 6 5 5 5 6 6 6 6 6 6 6 4 6 6 6 5 4 3 3 2 3 5
9 9 8 9 9 8 8 8 7 6 6 8 7 6 5 5 6 6 6 5 5 5 6 6 6 5 5 6 6 6 6 4 4 6 6 6 5 4 3 3 3 3
9 8 9 9 10 8 9 8 7 7 6 7 6 6 7 5 5 5 5 5 5 5 6 6 7 7 5 5 5 5 5 5 4 4 4 4 5 4 4 4 4 4
9 9 10 10 10 8 9 8 8 8 6 7 7 7 6 6 6 5 6 6 7 7 6 6 7 5 6 6 5 4 4 4 4 4 4 4 4 4 4 4 3 3
10 9 11 11 10 9 9 9 8 8 7 6 7 8 7 6 7 6 6 6 6 6 7 7 7 7 7 7 6 5 4 4 3 3 3 3 3 3 3 3 4 3
11 11 10 10 9 8 8 8 9 8 8 8 7 8 8 8 6 7 5 5 5 5 7 6 6 6 6 6 5 4 5 5 4 3 3 3 3 3 3 3 3 3
11 9 9 9 7 7 8 9 8 8 8 6 7 8 8 8 8 8 6 5 5 5 5 5 7 6 6 6 5 5 6 5 5 5 4 3 3 3 3 3 3 2
8 7 7 7 8 8 9 9 9 8 7 7 7 7 6 7 6 7 7 6 6 6 6 5 7 7 5 6 8 7 6 6 5 6 5 5 3 3 3 3 2 2
9 8 8 8 9 10 10 9 8 8 8 8 8 7 6 6 6 6 7 7 8 7 7 6 6 6 8 12 9 6 6 5 6 5 5 4 4 3 3 3 3 3
8 9 9 10 10 8 8 9 9 9 9 8 8 7 8 7 7 8 8 7 9 9 8 6 6 6 12 14 14 13 9 5 6 6 5 4 4 5 6 5 3 3
10 10 10 10 9 10 9 8 7 8 8 8 8 8 7 7 8 8 8 7 7 7 8 7 7 10 16 16 15 15 11 6 6 6 5 5 5 5 5 5 5 4
9 11 10 9 9 8 7 7 8 8 8 8 10 7 7 9 9 8 8 7 8 8 8 7 8 13 17 17 16 16 14 10 5 5 4 5 6 6 6 6 5 5
10 9 10 9 8 8 8 8 8 10 8 6 6 6 8 7 7 9 8 8 8 9 8 7 8 13 18 18 17 17 16 12 7 6 6 6 7 6 6 6 6 6
10 10 10 8 8 8 8 8 9 7 7 7 8 9 10 10 10 9 8 7 8 7 7 8 8 15 18 19 19 20 18 13 8 7 6 6 6 6 6 6 5 5
10 10 9 8 9 8 9 10 10 10 10 7 7 6 4 4 4 6 8 9 8 7 8 9 8 17 19 20 20 20 20 10 8 8 6 6 6 6 6 5 5 5
11 11 10 10 9 10 11 11 10 8 7 6 7 7 8 8 9 8 7 8 8 9 9 9 9 15 20 21 20 21 15 7 8 7 6 6 6 6 5 6 5 5
10 10 11 10 10 12 12 10 8 5 7 6 10 10 10 10 8 7 6 7 9 10 11 10 9 12 20 21 21 22 16 9 8 7 7 7 7 6 6 6 7 12
9 9 10 10 11 11 10 10 10 11 8 7 7 6 7 5 6 7 7 7 8 9 9 11 9 11 19 22 22 22 16 9 9 8 8 8 6 6 6 7 7 10
8 9 9 10 11 9 8 10 7 6 8 8 7 7 6 6 6 7 9 9 8 8 9 10 10 9 12 22 22 22 22 10 9 10 12 11 7 7 6 7 8 7
Wind_Direction
154 155 153 152 155 156 156 156 161 153 155 156 149 156 148 140 121 114 119 114 113 110 108 101 99 100 92 89 91 92 90 95 90 99 100 104 104 107 104 101 92 100
157 150 142 136 139 145 153 156 157 156 156 153 147 135 126 122 125 130 132 123 116 115 114 112 110 110 104 101 102 104 100 100 99 90 105 97 101 96 94 94 99 97
154 151 153 158 161 161 157 150 147 148 145 145 134 131 131 128 130 118 115 118 118 116 117 121 112 105 106 107 106 105 110 110 107 104 97 99 97 96 95 93 86 84
161 162 162 160 155 154 149 143 142 137 131 137 147 140 131 131 127 127 123 122 123 125 127 117 114 109 111 113 109 97 102 100 118 117 106 93 88 96 94 94 95 82
163 159 154 148 145 145 149 151 154 157 155 142 127 132 133 136 136 138 140 135 137 136 124 115 111 114 116 113 114 114 116 118 117 110 103 96 85 94 103 103 99 94
162 160 157 157 157 158 163 165 163 156 148 146 151 137 137 137 140 148 149 145 148 137 124 119 116 108 124 123 118 120 132 122 118 110 99 98 93 83 99 106 108 103
166 162 161 155 157 168 163 163 159 153 152 146 132 149 149 152 155 157 154 152 147 140 134 134 132 133 136 131 126 126 109 119 116 109 109 104 104 95 97 109 114 113
168 164 160 160 162 168 166 164 163 158 152 146 158 156 156 158 154 154 157 157 147 137 135 139 131 135 139 138 136 130 121 126 126 121 119 126 123 130 133 138 135 123
163 167 162 164 165 170 170 166 162 155 155 159 162 158 159 158 158 158 158 148 137 139 142 147 143 124 137 136 130 137 139 135 133 133 139 145 145 155 164 158 140 134
172 165 165 168 174 176 171 168 161 161 163 163 158 155 158 156 154 154 147 146 145 154 163 152 133 125 131 138 137 139 139 138 135 137 143 150 155 165 174 165 155 131
174 170 172 177 178 174 173 164 164 163 166 165 156 162 162 154 156 155 154 157 167 175 167 160 147 134 130 128 131 131 135 137 143 147 150 152 162 172 171 159 150 135
177 175 181 181 177 174 172 168 165 168 167 167 166 165 162 167 162 166 168 168 173 176 167 133 126 135 124 132 140 136 131 131 134 141 150 153 161 165 161 155 136 137
182 185 182 180 178 172 166 168 171 169 168 172 172 169 168 169 167 163 167 165 170 167 169 148 124 126 120 128 137 135 139 140 139 145 157 162 167 167 151 128 125 129
188 181 179 177 169 166 173 175 169 168 172 166 164 172 175 174 171 168 160 158 166 166 160 149 120 130 129 126 145 150 151 150 155 163 168 174 170 159 139 129 134 146
177 175 169 166 167 171 175 177 174 170 165 165 173 176 174 171 161 155 156 160 161 165 150 150 150 165 150 153 137 153 154 155 160 166 175 176 177 161 143 143 145 169
173 170 170 168 173 180 181 176 172 169 168 171 178 176 167 163 158 160 167 169 143 151 140 150 155 154 177 174 172 151 158 163 170 164 176 181 179 183 187 181 192 182
167 174 170 180 183 177 177 176 175 171 173 175 175 172 169 165 163 170 177 175 173 152 153 178 185 182 184 185 182 177 173 166 170 169 175 183 193 195 199 197 206 199
176 174 179 184 176 183 180 178 170 171 177 178 173 172 172 162 174 183 178 176 172 173 181 188 187 192 193 193 187 183 176 166 164 165 180 196 204 207 207 200 198 197
175 179 182 180 185 180 173 171 176 178 180 178 184 177 158 174 187 178 186 179 176 177 189 193 189 199 199 195 191 185 178 169 171 174 191 207 212 214 210 206 197 194
178 178 183 185 177 173 172 177 180 191 188 179 162 161 177 183 184 187 184 185 184 185 192 197 197 205 202 197 193 188 180 169 176 179 202 212 215 219 216 208 200 192
179 181 184 179 176 173 173 182 190 190 182 183 179 184 184 189 187 187 191 184 186 188 193 200 205 206 205 201 198 196 191 173 171 180 194 213 216 220 220 214 204 198
178 182 183 178 174 175 180 190 193 191 190 183 180 186 186 173 194 190 191 192 191 185 192 210 211 208 208 205 201 200 196 182 173 182 189 203 217 213 219 216 206 204
183 183 184 180 179 181 191 195 191 192 190 172 181 190 188 194 198 197 194 189 189 192 200 213 211 211 210 207 205 200 195 179 177 184 196 199 210 213 219 224 215 209
184 182 184 185 181 192 196 197 192 190 189 179 188 189 197 201 194 194 197 195 196 201 203 208 214 214 213 210 206 202 192 180 177 178 199 205 215 218 219 227 225 220
182 184 186 184 191 198 192 192 192 194 188 179 196 194 206 185 186 198 203 204 206 207 201 207 219 217 217 214 208 204 195 177 178 179 187 204 198 214 221 224 231 228
179 183 188 187 196 195 191 199 187 171 179 184 194 194 195 191 194 202 207 213 203 204 208 211 217 219 220 219 212 207 201 181 181 171 195 201 197 203 214 231 225 226